Location: Christian Reformed Church
(43.0975°N, 93.8113°W)
Time: 21:27:13
(UTC+00:00)

NOSS 8 (A) - Pass Details

Date: 13 December 2025
Orbit: 356 x 1378 km, 63.3° (Epoch: 12 January)

Event Time Altitude Azimuth Distance (km) Brightness Sun altitude
Exits shadow 12:01:48 51° 292° (WNW) 508 4.2 -17.0°
Maximum altitude 12:02:22 66° 236° (SW) 445 4.1 -16.9°
Drops below altitude 10° 12:05:49 10° 153° (SSE) 1,613 7.8 -16.3°
Sets 12:08:11 0° 151° (SSE) 2,626 9.0 -15.8°
